Weather History for Winchester, TN

Change the Weather History Date:

Saturday, November 17, 2012

  Actual Average (KTHA) Record (KTHA)
Temperature  
Mean Temperature 43 °F -  
Max Temperature 60 °F 60 °F 68 °F (2013)
Min Temperature 26 °F 36 °F 57 °F (2013)
Degree Days  
Heating Degree Days 22    
Moisture  
Dew Point 31 °F    
Average Humidity 73    
Maximum Humidity 100    
Minimum Humidity 29    
Precipitation  
Precipitation 0.00 in - - ()
Sea Level Pressure  
Sea Level Pressure 30.39 in    
Wind  
Wind Speed 1 mph ()    
Max Wind Speed 8 mph    
Max Gust Speed -    
Visibility 10.0 miles    
Events      
Averages and records for this station are not official NWS values.
T = Trace of Precipitation, MM = Missing Value Source: Averaged Metar Reports

Daily Weather History Graph

Daily Weather History Graph

Search for Another Location

Airport:

Trip Planner

Search our weather history database for the weather conditions in past years. The results will help you decide how hot, cold, wet, or windy it might be!

Date:

Astronomy

Nov. 17, 2012 Rise Set
Actual Time 7:21 AM EST 5:36 PM EST
Civil Twilight 6:54 AM EST 6:03 PM EST
Nautical Twilight 6:23 AM EST 6:34 PM EST
Astronomical Twilight 5:53 AM EST 7:04 PM EST
Moon 11:05 AM EST (11/17) 9:45 PM EST (11/17)
Length of Visible Light 11h 09m
Length of Day
10h 15m
Waxing Crescent, 20% of the Moon is Illuminated
Nov 17
Waxing Crescent
Nov 20
First Quarter
Nov 28
Full
Dec 6
Last Quarter
Dec 13
New

Hourly Weather History & Observations

Time (EST) Temp. Windchill Dew Point Humidity Pressure Visibility Wind Dir Wind Speed Gust Speed Precip Events Conditions
12:15 AM 39.2 °F 37.0 °F 28.4 °F 65% 30.35 in 10.0 mi NNW 3.5 mph - N/A   Clear
12:35 AM 33.8 °F - 28.4 °F 81% 30.36 in 10.0 mi Calm Calm - N/A   Clear
12:55 AM 32.0 °F - 28.4 °F 87% 30.36 in 10.0 mi Calm Calm - N/A   Clear
1:35 AM 30.2 °F - 28.4 °F 93% 30.36 in 10.0 mi Calm Calm - N/A   Clear
1:55 AM 30.2 °F - 28.4 °F 93% 30.37 in 10.0 mi Calm Calm - N/A   Clear
2:15 AM 30.2 °F - 28.4 °F 93% 30.37 in 10.0 mi Calm Calm - N/A   Clear
2:35 AM 30.2 °F - 28.4 °F 93% 30.37 in 10.0 mi Calm Calm - N/A   Clear
2:55 AM 28.4 °F - 26.6 °F 93% 30.37 in 10.0 mi Calm Calm - N/A   Clear
3:15 AM 28.4 °F - 28.4 °F 100% 30.38 in 10.0 mi Calm Calm - N/A   Clear
3:35 AM 26.6 °F - 26.6 °F 100% 30.37 in 10.0 mi Calm Calm - N/A   Clear
3:55 AM 28.4 °F - 26.6 °F 93% 30.37 in 10.0 mi Calm Calm - N/A   Clear
4:15 AM 28.4 °F - 26.6 °F 93% 30.38 in 10.0 mi Calm Calm - N/A   Clear
4:35 AM 26.6 °F - 26.6 °F 100% 30.38 in 10.0 mi Calm Calm - N/A   Clear
4:55 AM 28.4 °F - 26.6 °F 93% 30.38 in 10.0 mi Calm Calm - N/A   Clear
5:15 AM 26.6 °F - 26.6 °F 100% 30.39 in 10.0 mi Calm Calm - N/A   Clear
5:35 AM 28.4 °F - 26.6 °F 93% 30.40 in 10.0 mi Calm Calm - N/A   Clear
5:55 AM 28.4 °F - 26.6 °F 93% 30.40 in 10.0 mi Calm Calm - N/A   Clear
6:15 AM 26.6 °F - 24.8 °F 93% 30.40 in 10.0 mi Calm Calm - N/A   Clear
6:35 AM 26.6 °F - 26.6 °F 100% 30.41 in 10.0 mi Calm Calm - N/A   Clear
6:55 AM 26.6 °F - 24.8 °F 93% 30.41 in 10.0 mi Calm Calm - N/A   Clear
7:15 AM 26.6 °F - 26.6 °F 100% 30.41 in 10.0 mi Calm Calm - N/A   Clear
7:35 AM 26.6 °F - 26.6 °F 100% 30.42 in 10.0 mi Calm Calm - N/A   Clear
7:55 AM 28.4 °F - 26.6 °F 93% 30.42 in 10.0 mi Calm Calm - N/A   Clear
8:15 AM 28.4 °F - 26.6 °F 93% 30.43 in 10.0 mi Calm Calm - N/A   Clear
8:35 AM 33.8 °F - 30.2 °F 87% 30.43 in 10.0 mi Calm Calm - N/A   Clear
8:55 AM 35.6 °F - 32.0 °F 87% 30.43 in 10.0 mi Calm Calm - N/A   Clear
9:15 AM 39.2 °F 37.0 °F 33.8 °F 81% 30.43 in 10.0 mi North 3.5 mph - N/A   Clear
9:35 AM 42.8 °F - 35.6 °F 76% 30.44 in 10.0 mi Calm Calm - N/A   Clear
9:55 AM 46.4 °F - 35.6 °F 66% 30.44 in 10.0 mi Calm Calm - N/A   Clear
10:15 AM 50.0 °F - 35.6 °F 58% 30.44 in 10.0 mi Calm Calm - N/A   Clear
10:35 AM 51.8 °F - 33.8 °F 50% 30.45 in 10.0 mi Calm Calm - N/A   Clear
10:55 AM 53.6 °F - 33.8 °F 47% 30.45 in 10.0 mi Calm Calm - N/A   Clear
11:15 AM 55.4 °F - 33.8 °F 44% 30.45 in 10.0 mi Calm Calm - N/A   Clear
11:35 AM 55.4 °F - 33.8 °F 44% 30.44 in 10.0 mi SSE 4.6 mph - N/A   Clear
12:55 PM 59.0 °F - 32.0 °F 36% 30.41 in 10.0 mi Calm Calm - N/A   Clear
1:15 PM 59.0 °F - 33.8 °F 39% 30.40 in 10.0 mi Variable 4.6 mph - N/A   Clear
1:35 PM 60.8 °F - 33.8 °F 36% 30.39 in 10.0 mi Variable 4.6 mph - N/A   Clear
1:55 PM 60.8 °F - 32.0 °F 34% 30.38 in 10.0 mi Variable 4.6 mph - N/A   Clear
2:15 PM 60.8 °F - 28.4 °F 29% 30.37 in 10.0 mi NW 4.6 mph - N/A   Clear
2:35 PM 60.8 °F - 32.0 °F 34% 30.37 in 10.0 mi Variable 4.6 mph - N/A   Clear
2:55 PM 60.8 °F - 30.2 °F 31% 30.36 in 10.0 mi Variable 3.5 mph - N/A   Clear
3:15 PM 60.8 °F - 32.0 °F 34% 30.36 in 10.0 mi NNE 4.6 mph - N/A   Clear
3:35 PM 60.8 °F - 32.0 °F 34% 30.35 in 10.0 mi North 6.9 mph - N/A   Clear
3:55 PM 60.8 °F - 32.0 °F 34% 30.35 in 10.0 mi NNE 8.1 mph - N/A   Clear
4:15 PM 60.8 °F - 32.0 °F 34% 30.35 in 10.0 mi NNE 5.8 mph - N/A   Clear
4:35 PM 59.0 °F - 32.0 °F 36% 30.35 in 10.0 mi North 8.1 mph - N/A   Clear
4:55 PM 57.2 °F - 33.8 °F 41% 30.35 in 10.0 mi North 4.6 mph - N/A   Clear
5:15 PM 57.2 °F - 33.8 °F 41% 30.36 in 10.0 mi North 5.8 mph - N/A   Clear
5:35 PM 55.4 °F - 33.8 °F 44% 30.36 in 10.0 mi NNE 3.5 mph - N/A   Clear
5:55 PM 51.8 °F - 33.8 °F 50% 30.37 in 10.0 mi Calm Calm - N/A   Clear
6:15 PM 50.0 °F - 33.8 °F 54% 30.37 in 10.0 mi Calm Calm - N/A   Clear
6:35 PM 51.8 °F - 33.8 °F 50% 30.37 in 10.0 mi Calm Calm - N/A   Clear
6:55 PM 44.6 °F - 35.6 °F 71% 30.38 in 10.0 mi Calm Calm - N/A   Clear
7:15 PM 41.0 °F - 33.8 °F 76% 30.38 in 10.0 mi Calm Calm - N/A   Clear
7:35 PM 39.2 °F - 35.6 °F 87% 30.38 in 10.0 mi Calm Calm - N/A   Clear
7:55 PM 39.2 °F - 33.8 °F 81% 30.38 in 10.0 mi Calm Calm - N/A   Clear
8:15 PM 39.2 °F - 33.8 °F 81% 30.39 in 10.0 mi Calm Calm - N/A   Clear
8:35 PM 37.4 °F - 33.8 °F 87% 30.39 in 9.0 mi Calm Calm - N/A   Clear
8:55 PM 37.4 °F - 33.8 °F 87% 30.39 in 10.0 mi Calm Calm - N/A   Clear
9:15 PM 35.6 °F - 32.0 °F 87% 30.39 in 10.0 mi Calm Calm - N/A   Clear
9:35 PM 37.4 °F - 33.8 °F 87% 30.39 in 10.0 mi Calm Calm - N/A   Clear
9:55 PM 35.6 °F - 33.8 °F 93% 30.38 in 10.0 mi Calm Calm - N/A   Clear
10:15 PM 35.6 °F - 32.0 °F 87% 30.38 in 10.0 mi Calm Calm - N/A   Clear
10:35 PM 33.8 °F - 30.2 °F 87% 30.38 in 10.0 mi Calm Calm - N/A   Clear
10:55 PM 33.8 °F - 32.0 °F 93% 30.37 in 10.0 mi Calm Calm - N/A   Clear
11:15 PM 33.8 °F - 32.0 °F 93% 30.38 in 10.0 mi Calm Calm - N/A   Clear
11:35 PM 33.8 °F - 32.0 °F 93% 30.38 in 9.0 mi Calm Calm - N/A   Clear
11:55 PM 33.8 °F - 32.0 °F 93% 30.38 in 10.0 mi Calm Calm - N/A   Clear